Location: Nitra
(0.0000°N, 18.0833°E)
Time: 07:14:35
(UTC+02:00)

Max Valier Satellite - Visible Passes

Search period start: 03 June 2023 00:00
Search period end: 13 June 2023 00:00
Orbit: 444 x 458 km, 97.2° (Epoch: 02 June)

Date Brightness Start Highest point End Pass type
(mag) Time Alt. Az. Time Alt. Az. Time Alt. Az.
03 Jun ? 20:29:03 19° N 20:29:03 19° N 20:30:10 10° N visible
05 Jun ? 20:52:49 17° NNW 20:52:49 17° NNW 20:53:44 10° NNW visible
06 Jun ? 20:17:49 17° NNE 20:17:49 17° NNE 20:18:54 10° NNE visible
08 Jun ? 20:41:20 21° N 20:41:20 21° N 20:42:32 10° N visible
09 Jun ? 20:06:12 14° NE 20:06:12 14° NE 20:07:02 10° NNE visible
10 Jun ? 21:04:41 14° NW 21:04:41 14° NW 21:05:20 10° NW visible
11 Jun ? 20:29:28 22° N 20:29:28 22° N 20:30:49 10° N visible
12 Jun ? 19:54:13 10° NE 19:54:13 10° NE 19:54:21 10° NE visible
